Weather History for Broomfield, CO

Change the Weather History Date:

Thursday, October 25, 2012

  Actual Average Record
Temperature  
Mean Temperature 30 °F -  
Max Temperature 33 °F 56 °F 80 °F (2014)
Min Temperature 28 °F 36 °F 19 °F (1997)
Degree Days  
Heating Degree Days 34    
Moisture  
Dew Point 28 °F    
Average Humidity 91    
Maximum Humidity 100    
Minimum Humidity 75    
Precipitation  
Precipitation 0.00 in - - ()
Sea Level Pressure  
Sea Level Pressure 30.15 in    
Wind  
Wind Speed 5 mph (NE)    
Max Wind Speed 10 mph    
Max Gust Speed -    
Visibility 5 miles    
Events Snow    
Averages and records for this station are not official NWS values.
T = Trace of Precipitation, MM = Missing Value Source: NWS Daily Summary

Daily Weather History Graph

Daily Weather History Graph

Search for Another Location

Airport:

Trip Planner

Search our weather history database for the weather conditions in past years. The results will help you decide how hot, cold, wet, or windy it might be!

Date:

Astronomy

Oct. 25, 2012 Rise Set
Actual Time 7:22 AM MDT 6:06 PM MDT
Civil Twilight 6:54 AM MDT 6:33 PM MDT
Nautical Twilight 6:22 AM MDT 7:05 PM MDT
Astronomical Twilight 5:51 AM MDT 7:36 PM MDT
Moon 3:53 PM MDT 3:21 AM MDT
Length of Visible Light 11h 39m
Length of Day
10h 44m
Waxing Gibbous, 85% of the Moon is Illuminated
Oct 25
Waxing Gibbous
Oct 29
Full
Nov 6
Last Quarter
Nov 13
New
Nov 20
First Quarter

Hourly Weather History & Observations

Time (MDT) Temp. Windchill Dew Point Humidity Pressure Visibility Wind Dir Wind Speed Gust Speed Precip Events Conditions
12:16 AM 30.2 °F 21.3 °F 28.4 °F 93% 30.08 in 2.0 mi North 10.4 mph - N/A Snow Light Snow
12:35 AM 30.2 °F 24.3 °F 28.4 °F 93% 30.08 in 7.0 mi North 5.8 mph - N/A   Overcast
12:56 AM 30.2 °F 23.4 °F 28.4 °F 93% 30.08 in 2.5 mi North 6.9 mph - N/A Snow Light Snow
1:36 AM 30.2 °F 24.3 °F 28.4 °F 93% 30.08 in 7.0 mi NNE 5.8 mph - N/A Snow Light Snow
1:56 AM 30.2 °F 24.3 °F 28.4 °F 93% 30.10 in 7.0 mi NE 5.8 mph - N/A Snow Light Snow
2:16 AM 30.2 °F 25.4 °F 28.4 °F 93% 30.10 in 1.5 mi NE 4.6 mph - N/A Snow Light Snow
2:36 AM 30.2 °F 25.4 °F 28.4 °F 93% 30.10 in 1.2 mi NE 4.6 mph - N/A Snow Light Snow
2:56 AM 30.2 °F 26.7 °F 28.4 °F 93% 30.10 in 1.8 mi ENE 3.5 mph - N/A Snow Light Snow
3:16 AM 30.2 °F 26.7 °F 28.4 °F 93% 30.11 in 2.5 mi NE 3.5 mph - N/A Snow Light Snow
3:35 AM 30.2 °F - 28.4 °F 93% 30.11 in 4.0 mi Calm Calm - N/A Snow Light Snow
3:56 AM 30.2 °F - 28.4 °F 93% 30.11 in 4.0 mi Calm Calm - N/A Snow Light Snow
4:16 AM 30.2 °F - 28.4 °F 93% 30.12 in 4.0 mi Calm Calm - N/A Snow Light Snow
4:36 AM 30.2 °F - 28.4 °F 93% 30.12 in 2.5 mi Calm Calm - N/A Snow Light Snow
4:56 AM 30.2 °F - 28.4 °F 93% 30.13 in 5.0 mi Calm Calm - N/A Snow Light Snow
5:16 AM 28.4 °F - 28.4 °F 100% 30.14 in 4.0 mi Calm Calm - N/A Snow Light Snow
5:36 AM 30.2 °F - 30.2 °F 100% 30.14 in 3.0 mi Calm Calm - N/A Snow Light Snow
5:48 AM 28.4 °F - 28.4 °F 100% 30.14 in 2.0 mi Calm Calm - N/A Snow Light Snow
5:56 AM 30.2 °F - 30.2 °F 100% 30.15 in 2.5 mi Calm Calm - N/A Snow Light Snow
6:50 AM 28.4 °F - 28.4 °F 100% 30.16 in 2.0 mi Calm Calm - N/A Snow Light Snow
7:46 AM 28.4 °F - 28.4 °F 100% 30.17 in 7.0 mi Calm Calm - N/A   Overcast
8:48 AM 30.2 °F - 30.2 °F 100% 30.18 in 10.0 mi Calm Calm - N/A   Mostly Cloudy
9:48 AM 30.2 °F 26.7 °F 28.4 °F 93% 30.19 in 10.0 mi Variable 3.5 mph - N/A   Overcast
12:49 PM 32.0 °F - 26.6 °F 80% 30.16 in 15.0 mi Calm Calm - N/A   Mostly Cloudy
1:49 PM 33.8 °F 28.6 °F 26.6 °F 75% 30.15 in 15.0 mi East 5.8 mph - N/A   Mostly Cloudy
2:47 PM 33.8 °F 28.6 °F 26.6 °F 75% 30.15 in 15.0 mi ESE 5.8 mph - N/A   Overcast
3:48 PM 33.8 °F 28.6 °F 26.6 °F 75% 30.16 in 25.0 mi East 5.8 mph - N/A   Overcast
4:47 PM 32.0 °F 25.6 °F 24.8 °F 75% 30.17 in 20.0 mi ENE 6.9 mph - N/A   Overcast
5:47 PM 32.0 °F 24.8 °F 26.6 °F 80% 30.19 in 2.0 mi East 8.1 mph - N/A Snow Light Snow
7:52 PM 32.0 °F 26.4 °F 26.6 °F 80% 30.21 in 4.0 mi SE 5.8 mph - N/A Snow Light Snow
8:49 PM 30.2 °F 24.3 °F 26.6 °F 86% 30.22 in 2.0 mi East 5.8 mph - N/A Snow Light Snow
9:15 PM 30.2 °F 24.3 °F 28.4 °F 93% 30.23 in 0.8 mi NNE 5.8 mph - N/A Snow Light Snow
9:51 PM 30.2 °F 23.4 °F 28.4 °F 93% 30.23 in 1.0 mi NNE 6.9 mph - N/A Snow Light Snow
11:16 PM 30.2 °F 24.3 °F 28.4 °F 93% 30.23 in 3.0 mi NNE 5.8 mph - N/A Snow Light Snow
11:36 PM 30.2 °F 25.4 °F 28.4 °F 93% 30.23 in 3.0 mi North 4.6 mph - N/A Snow Light Snow